Chillicothe, MO

4:14 AM CDT on September 16, 2019 (GMT -0500)
Chillicothe

Weather History for KCDJ - July, 2019

Change the Weather History Date:

Wednesday, July 17, 2019

  Actual Average (KIRK) Record (KIRK)
Temperature  
Mean Temperature 83 °F -  
Max Temperature 95 °F 87 °F 106 °F (1936)
Min Temperature 73 °F 65 °F 51 °F (2014)
Cooling Degree Days 18    
Growing Degree Days 33 (Base 50)    
Moisture  
Dew Point 74 °F    
Average Humidity 73    
Maximum Humidity 93    
Minimum Humidity 57    
Precipitation  
Precipitation 0.00 in - - ()
Sea Level Pressure  
Sea Level Pressure 29.85 in    
Wind  
Wind Speed 4 mph (South)    
Max Wind Speed 13 mph    
Max Gust Speed 22 mph    
Averages and records for this station are not official NWS values.
T = Trace of Precipitation, MM = Missing Value Source: NWS Daily Summary

Daily Weather History Graph

Daily Weather History Graph

Search for Another Location

Airport or City:

Astronomy

Jul. 17, 2019 Rise Set
Actual Time 6:00 AM CDT 8:40 PM CDT
Civil Twilight 5:28 AM CDT 9:11 PM CDT
Nautical Twilight 4:48 AM CDT 9:51 PM CDT
Astronomical Twilight 4:04 AM CDT 10:35 PM CDT
Moon 9:29 PM CDT (7/17) 6:33 AM CDT (7/17)
Length of Visible Light 15h 43m
Length of Day
14h 40m
Full, 99% of the Moon is Illuminated
Jul 17
Full
Jul 24
Last Quarter
Jul 31
New
Aug 7
First Quarter
Aug 15
Full

Hourly Weather History & Observations

Time (CDT) Temp. Heat Index Dew Point Humidity Pressure Visibility Wind Dir Wind Speed Gust Speed Precip Events Conditions
12:52 AM 75.9 °F - 72.0 °F 87% 29.88 in - Calm Calm - N/A   Unknown
1:52 AM 78.1 °F - 72.0 °F 81% 29.87 in - South 4.6 mph - N/A   Unknown
2:52 AM 77.0 °F - 72.0 °F 84% 29.86 in - South 3.5 mph - N/A   Unknown
3:52 AM 77.0 °F - 72.0 °F 84% 29.87 in - South 3.5 mph - N/A   Unknown
4:52 AM 75.9 °F - 72.0 °F 87% 29.88 in - Calm Calm - N/A   Unknown
5:52 AM 73.9 °F - 72.0 °F 93% 29.87 in - Calm Calm - N/A   Unknown
6:52 AM 77.0 °F - 73.0 °F 88% 29.87 in - Calm Calm - N/A   Unknown
7:52 AM 79.0 °F - 73.9 °F 84% 29.89 in - Calm Calm - N/A   Unknown
8:52 AM 82.9 °F 89.4 °F 73.9 °F 74% 29.89 in - Variable 4.6 mph - N/A   Unknown
9:52 AM 88.0 °F 96.5 °F 73.9 °F 63% 29.88 in - South 8.1 mph - N/A   Unknown
10:52 AM 91.0 °F 102.9 °F 75.9 °F 61% 29.86 in - South 8.1 mph - N/A   Unknown
11:52 AM 91.9 °F 103.9 °F 75.9 °F 59% 29.85 in - South 10.4 mph 17.3 mph N/A   Unknown
12:52 PM 91.9 °F 103.9 °F 75.9 °F 59% 29.86 in - SSW 12.7 mph 20.7 mph N/A   Unknown
1:52 PM 93.9 °F 108.4 °F 77.0 °F 58% 29.83 in - South 10.4 mph 17.3 mph N/A   Unknown
2:52 PM 91.0 °F 104.2 °F 77.0 °F 63% 29.85 in - South 6.9 mph - N/A   Unknown
3:52 PM 93.9 °F 108.4 °F 77.0 °F 58% 29.83 in - South 10.4 mph 21.9 mph N/A   Unknown
4:52 PM 93.0 °F 105.3 °F 75.9 °F 57% 29.82 in - South 9.2 mph 19.6 mph N/A   Unknown
5:52 PM 91.9 °F 105.9 °F 77.0 °F 62% 29.81 in - South 5.8 mph - N/A   Unknown
6:52 PM 90.0 °F 102.5 °F 77.0 °F 65% 29.80 in - SE 8.1 mph - N/A   Unknown
7:52 PM 89.1 °F 101.4 °F 77.0 °F 67% 29.81 in - SSE 6.9 mph - N/A   Unknown
8:52 PM 81.0 °F 85.8 °F 73.0 °F 77% 29.83 in - SE 5.8 mph - N/A   Unknown
10:52 PM 78.1 °F - 71.1 °F 79% 29.84 in - SSE 8.1 mph - N/A   Unknown
11:52 PM 77.0 °F - 71.1 °F 82% 29.83 in - SSE 10.4 mph 17.3 mph N/A   Unknown